Home > Weather > Knittelfeld > Past weeks

Flag for Austria Weather for the Past 2 Weeks in Knittelfeld, Styria, Austria

Now
27 °F

Chilly.


Feels Like: 27 °F
Forecast: 20 / 47 °F
Wind: 1 mph from North

Location: Graz-Thalerhof-Flughafen

Current Time: Feb 6, 2016 at 4:54:44 AM

Latest Report: Feb 6, 2016 at 3:50 AM


Visibility: N/A

Pressure: 30.30 "Hg (27.94 "Hg at 641m altitude)

Humidity: 100%

Dew point: 27 °F

Location of KnittelfeldLocation

Historic Weather in Knittelfeld — Graph

°F

Knittelfeld Temperature Yesterday

Maximum temperature yesterday: 50 °F (at 2:50 PM)
Minimum temperature yesterday: 28 °F (at 7:20 AM)
Average temperature yesterday: 38 °F

High & Low Weather Summary for the Past Weeks

 TemperatureHumidityPressure
High61 °F (Jan 28, 2:20 PM)100% (Jan 23, 3:50 AM)30.54 "Hg (Jan 23, 3:50 AM)
Low12 °F (Jan 23, 3:50 AM)31% (Feb 4, 1:20 PM)29.86 "Hg (Jan 30, 10:50 PM)
Average36 °F82%30.24 "Hg
* Reported Jan 22 2:20 AM — Feb 6 2:50 AM, Knittelfeld, Weather by CustomWeather, © 2016

Note: Actual official high and low records may vary slightly from our data, if they occured in-between our weather recording intervals... More about our weather records

Advertising

Knittelfeld Weather History for the Previous 24 Hours

 ConditionsComfort  
Time TempWeatherWind HumidityBarometerVisibility
2:50 AM
Sat, Feb 6
27 °FChilly.2 mph100%30.33 "HgN/A
2:20 AM28 °FChilly.1 mph93%30.33 "HgN/A
1:20 AM30 °FChilly.1 mph86%30.33 "HgN/A
12:50 AM28 °FChilly.1 mph93%30.33 "HgN/A
12:20 AM30 °FChilly.1 mph86%30.33 "HgN/A
11:50 PM
Fri, Feb 5
32 °FChilly.1 mph80%30.33 "HgN/A
11:20 PM34 °FPassing clouds.2 mph81%30.36 "HgN/A
10:50 PM36 °FPassing clouds.1 mph75%30.36 "HgN/A
10:20 PM36 °FPassing clouds.1 mph81%30.36 "HgN/A
9:50 PM37 °FPassing clouds.1 mph70%30.36 "HgN/A
9:20 PM36 °FPassing clouds.1 mph75%30.36 "HgN/A
8:50 PM36 °FPartly cloudy.1 mph75%30.36 "HgN/A
8:20 PM36 °FPassing clouds.2 mph75%30.36 "HgN/A
7:50 PM36 °FPassing clouds.2 mph75%30.36 "HgN/A
7:20 PM36 °FPassing clouds.3 mph70%30.36 "HgN/A
6:50 PM37 °FPassing clouds.1 mph65%30.33 "HgN/A
6:20 PM37 °FPassing clouds.2 mph65%30.33 "HgN/A
5:50 PM39 °FPassing clouds.2 mph61%30.33 "HgN/A
5:20 PM41 °FPassing clouds.1 mph57%30.30 "HgN/A
4:50 PM43 °FPassing clouds.5 mph53%30.30 "HgN/A
4:20 PM45 °FScattered clouds.7 mph49%30.30 "HgN/A
3:50 PM46 °FScattered clouds.7 mph46%30.30 "HgN/A
3:20 PM48 °FScattered clouds.5 mph43%30.30 "HgN/A
2:50 PM50 °FPartly sunny.2 mph40%30.30 "HgN/A
2:20 PM46 °FPartly sunny.3 mph40%30.30 "HgN/A
1:50 PM48 °FPartly sunny.2 mph40%30.30 "HgN/A
1:20 PM46 °FPartly sunny.3 mph40%30.30 "HgN/A
12:50 PM46 °FPartly sunny.3 mph40%30.30 "HgN/A
12:20 PM46 °FScattered clouds.8 mph43%30.30 "HgN/A
11:50 AM46 °FScattered clouds.9 mph43%30.30 "HgN/A
11:20 AM45 °FScattered clouds.12 mph46%30.30 "HgN/A
10:50 AM45 °FScattered clouds.9 mph46%30.30 "HgN/A
10:20 AM43 °FScattered clouds.6 mph53%30.30 "HgN/A
9:50 AM41 °FPassing clouds.2 mph70%30.30 "HgN/A
9:20 AM36 °FPassing clouds.5 mph81%30.30 "HgN/A
8:50 AM36 °FPassing clouds.2 mph81%30.30 "HgN/A
8:20 AM30 °FPassing clouds.2 mph93%30.27 "HgN/A
7:50 AM28 °FPassing clouds.3 mph93%30.27 "HgN/A
7:20 AM28 °FPassing clouds.2 mph93%30.24 "HgN/A
6:50 AM30 °FPassing clouds.2 mph93%30.24 "HgN/A
6:20 AM30 °FPassing clouds.2 mph93%30.21 "HgN/A
5:50 AM32 °FPassing clouds.2 mph87%30.18 "HgN/A
5:20 AM32 °FChilly.2 mph87%30.18 "HgN/A
4:50 AM36 °FPassing clouds.6 mph81%30.15 "HgN/A
4:20 AM36 °FPassing clouds.9 mph81%30.15 "HgN/A
Weather by CustomWeather, © 2016

See weather overviewHow to use our weather pages